SL-14 DEB, 45653

Orbit data source: Space-Track

SL-14 DEB, 45653 is space debris in LEO originally from a launch on Thu, 15 Aug 1991 UTC launched from the Plesetsk Missile And Space Complex (PKMTR). Debris objects in space refer to the collection of defunct objects orbiting the Earth. Examples of debris include non-operational satellites, rocket bodies, and fragments generated from explosions, collisions, or faulty payload assembly.

Loading next visibility...
SL-14 DEB details
Identifier
45653, 1991-056CX
Orbit
LEO
Last TLE update5 days ago
Origin
Flag of CISRosgidromet (CIS)
ManufacturerUnknown
MissionSpacecraft
Bus & MotorUnknown
MassUnknown
Launch date (UTC)
1991-08-15 (33 years ago)
Launch vehicleUnknown
Launch site
Plesetsk Missile And Space Complex (PKMTR)
Object type
Payload
Rocket body
Debris
Shape & HBRUnknown
Radar Cross SectionSmall (<0.1 m²)

Expand to show TLE details & history

TLE from 5 days ago
0 SL-14 DEB
1 45653U 91056CX  24356.82635844  .00002312  00000-0  45345-2 0  9995
2 45653  82.5559 130.0228 0075500 238.1507 121.2261 13.34384046231364
Epoch: 2024-12-21T19:49Z
Definitive object data (Epoch: 2024-12-21T19:49:57.369Z)
Latitude-0.00003°
Longitude101.66181°
Altitude1,162.809 km
Speed7.257 km/s
True Right ascension08h 40m 05s
True Declination0° 00' 00"
Sunlit
Object was in full shadow at TLE epoch
Visualization TLE readout
Latitude-72.02943°
Longitude-58.46405°
Altitude1,106.941 km
Speed7.323 km/s
Apparent Right ascension11h 35m 56s
Apparent Declination-76° 26' 36"
Sunlit
Object is in daylight
Visualization observer readout
Local Sidereal Time22:51:27
Azimuth184.324° SSW
Elevation-53.149°
Doppler factor1
Orbital elements
Apogee altitude1,184.16 km
Perigee altitude1,070.825 km
Semi-major axis7,505.629 km
Eccentricity0.00755
Inclination82.5559°
RAAN130.0228°
Arg. of periapsis238.1507°
True anomaly121.96231°
Mean anomaly121.2261°
Eccentric anomaly121.59456°
Mean motion3.33782 °/min
BSTAR0.0045345
Orbital period107.85 mins
Loading maneuver chart data...
Loading historical data...
Loading historical data...
Loading historical data...
Loading historical data...
Loading historical data...
Loading historical data...
Loading historical data...

SL-14 DEB Visibility forecast

Observer location: undefined°, undefined

Span
Click to sort rows by Start time (UTC) header in descending order
Start Az.
Max El. time (UTC)
Max El. Az.
Max El.
End time (UTC)
End Az.
13 mins2024-12-27 09:06:07.756Z177.226° S2024-12-27 09:12:07.756Z89.896° E44.103°2024-12-27 09:19:07.756Z11.091° NNE
8 mins2024-12-27 10:58:07.756Z260.027° W2024-12-27 11:01:07.756Z288.307° WNW18.38°2024-12-27 11:06:07.756Z334.275° NNW
5 mins2024-12-27 18:38:07.756Z44.299° NE2024-12-27 18:40:07.756Z62.886° ENE14.229°2024-12-27 18:43:07.756Z90.274° ESE
12 mins2024-12-27 20:24:07.756Z352.744° N2024-12-27 20:30:07.756Z152.277° SSE44.976°2024-12-27 20:36:07.756Z173.948° S
4 mins2024-12-27 22:16:07.756Z296.088° NW2024-12-27 22:18:07.756Z277.573° WNW13.298°2024-12-27 22:20:07.756Z259.661° W
|